WetterOnline ( http://www.wetteronline.de )

Wetter aktuell Bad Salzuflen

Aktuelles Wetter: Bad Salzuflen (139m)

6-stündlich | Neueste Meldungen
Ortszeit Temperatur Wetter
Do, 15.11. 13:00 5.9° C bedeckt
Do, 15.11. 7:00 4.2° C wolkenlos
Do, 15.11. 1:00 6.2° C wolkig
Mi, 14.11. 19:00 7.0° C wolkig
Mi, 14.11. 13:00 12.4° C leicht bewölkt
Mi, 14.11. 7:00 7.6° C bedeckt
Mi, 14.11. 1:00 7.4° C leicht bewölkt
Di, 13.11. 19:00 9.7° C leicht bewölkt
Ortszeit Temperatur Wetter
Do, 15.11. 18:00 4.0° C bewölkt
Do, 15.11. 17:50 4.0° C bewölkt
Do, 15.11. 17:40 4.3° C bewölkt
Do, 15.11. 17:30 4.5° C bedeckt
Do, 15.11. 17:20 4.5° C bedeckt
Do, 15.11. 17:10 4.5° C bedeckt
Do, 15.11. 17:00 4.4° C bewölkt
Do, 15.11. 16:30 4.4° C leicht bewölkt
Do, 15.11. 16:00 5.2° C wolkenlos
Do, 15.11. 15:30 5.1° C fast wolkenlos
Do, 15.11. 15:00 5.7° C fast wolkenlos
Ortszeit Relative Feuchte Sichtweite
Do, 15.11. 13:00 86% 16 km
Do, 15.11. 7:00 90% 11 km
Do, 15.11. 1:00 87% 16 km
Mi, 14.11. 19:00 86% 24 km
Mi, 14.11. 13:00 66% 35 km
Mi, 14.11. 7:00 90% 21 km
Mi, 14.11. 1:00 91% 17 km
Di, 13.11. 19:00 76% 55 km
Ortszeit Relative Feuchte Sichtweite
Do, 15.11. 18:00 89% 15 km
Do, 15.11. 17:50 89% -
Do, 15.11. 17:40 89% -
Do, 15.11. 17:30 88% 14 km
Do, 15.11. 17:20 88% -
Do, 15.11. 17:10 89% -
Do, 15.11. 17:00 89% 14 km
Do, 15.11. 16:30 88% 14 km
Do, 15.11. 16:00 86% 14 km
Do, 15.11. 15:30 87% 12 km
Do, 15.11. 15:00 83% 14 km
Ortszeit Niederschlagsmenge Niederschlagsart
Do, 15.11. 13:00 0.0 l/m2 in 6 Std. -
Do, 15.11. 7:00 0.0 l/m2 in 12 Std. -
Do, 15.11. 1:00 0.0 l/m2 in 6 Std. -
Mi, 14.11. 19:00 0.0 l/m2 in 12 Std. -
Mi, 14.11. 13:00 0.0 l/m2 in 6 Std. -
Mi, 14.11. 7:00 0.0 l/m2 in 12 Std. -
Mi, 14.11. 1:00 0.0 l/m2 in 6 Std. -
Di, 13.11. 19:00 1 l/m2 in 12 Std. Regen
Ortszeit Niederschlagsmenge Niederschlagsart
Do, 15.11. 18:00 0.0 l/m2 in 1 Std. -
Do, 15.11. 17:50 keine Meldung -
Do, 15.11. 17:40 keine Meldung -
Do, 15.11. 17:30 0.0 l/m2 in 1 Std. -
Do, 15.11. 17:20 keine Meldung -
Do, 15.11. 17:10 keine Meldung -
Do, 15.11. 17:00 0.0 l/m2 in 1 Std. -
Do, 15.11. 16:30 0.0 l/m2 in 1 Std. -
Do, 15.11. 16:00 0.0 l/m2 in 1 Std. -
Do, 15.11. 15:30 0.0 l/m2 in 1 Std. -
Do, 15.11. 15:00 0.0 l/m2 in 1 Std. -
Ortszeit Stärke Spitze Richtung
km/h Bft. km/h Grad Sektor
Do, 15.11. 13:00 11 2 25 150° SO
Do, 15.11. 7:00 7 2 20 140° SO
Do, 15.11. 1:00 9 2 22 150° SO
Mi, 14.11. 19:00 14 3 25 150° SO
Mi, 14.11. 13:00 11 2 18 190° S
Mi, 14.11. 7:00 6 1 15 180° S
Mi, 14.11. 1:00 7 2 25 210° SW
Di, 13.11. 19:00 14 3 43 220° SW
Ortszeit Stärke Spitze Richtung
km/h Bft. km/h Grad Sektor
Do, 15.11. 18:00 7 2 22 150° SO
Do, 15.11. 17:50 7 2 - 150° SO
Do, 15.11. 17:40 9 2 - 140° SO
Do, 15.11. 17:30 11 2 22 120° SO
Do, 15.11. 17:20 11 2 - 120° SO
Do, 15.11. 17:10 7 2 - 100° O
Do, 15.11. 17:00 7 2 22 110° O
Do, 15.11. 16:30 6 1 22 110° O
Do, 15.11. 16:00 9 2 24 150° SO
Do, 15.11. 15:30 13 3 24 150° SO
Do, 15.11. 15:00 15 3 24 150° SO
Ortszeit Untergrenze Bedeckung Gattung
total tief tief mittel hoch
Do, 15.11. 13:00 210 m 8/8 - - - -
Do, 15.11. 7:00 - 0/8 0/8 - - -
Do, 15.11. 1:00 8100 m 8/8 0/8 - - -
Mi, 14.11. 19:00 5400 m 8/8 3/8 - - -
Mi, 14.11. 13:00 8400 m 5/8 0/8 - - -
Mi, 14.11. 7:00 390 m 8/8 8/8 - - -
Mi, 14.11. 1:00 390 m 3/8 3/8 - - -
Di, 13.11. 19:00 990 m 2/8 2/8 - - -
Ortszeit Bedeckungsgrad in Achtel und Wolkenuntergrenze
Do, 15.11. 18:00 7(240m)
Do, 15.11. 17:50 7(240m)
Do, 15.11. 17:40 7(210m)
Do, 15.11. 17:30 8(210m)
Do, 15.11. 17:20 8(210m)
Do, 15.11. 17:10 8(210m)
Do, 15.11. 17:00 7(240m)
Do, 15.11. 16:30 4(270m)
Do, 15.11. 16:00 1(270m)
Do, 15.11. 15:30 1(10500m)
Do, 15.11. 15:00 2(10500m)
Ortszeit Luftdruck NN (hPa) Tendenz (hPa in 3 Std.)
Do, 15.11. 13:00 1028 - 0,2
Do, 15.11. 7:00 1027 - 0,3
Do, 15.11. 1:00 1028 - 0,6
Mi, 14.11. 19:00 1029 - 0,1
Mi, 14.11. 13:00 1029 - 0,6
Mi, 14.11. 7:00 1029 - 0,4
Mi, 14.11. 1:00 1029 + 0,9
Di, 13.11. 19:00 1026 + 2,1
Ortszeit Luftdruck NN (hPa) Tendenz (hPa in 3 Std.)
Do, 15.11. 18:00 1027 + 0,2
Do, 15.11. 17:50 1027 keine Meldung
Do, 15.11. 17:40 1027 keine Meldung
Do, 15.11. 17:30 1027 + 0,1
Do, 15.11. 17:20 1027 keine Meldung
Do, 15.11. 17:10 1027 keine Meldung
Do, 15.11. 17:00 1027 0,0
Do, 15.11. 16:30 1027 - 0,3
Do, 15.11. 16:00 1027 - 0,6
Do, 15.11. 15:30 1027 - 0,8
Do, 15.11. 15:00 1027 - 0,7
Ortszeit Schneehöhe (cm)
Do, 15.11. 13:00 0
Do, 15.11. 7:00 0
Do, 15.11. 1:00 0
Mi, 14.11. 19:00 0
Mi, 14.11. 13:00 0
Mi, 14.11. 7:00 0
Mi, 14.11. 1:00 0
Di, 13.11. 19:00 0
Ortszeit Schneehöhe (cm)
Do, 15.11. 18:00 0
Do, 15.11. 17:50 0
Do, 15.11. 17:40 0
Do, 15.11. 17:30 0
Do, 15.11. 17:20 0
Do, 15.11. 17:10 0
Do, 15.11. 17:00 0
Do, 15.11. 16:30 0
Do, 15.11. 16:00 0
Do, 15.11. 15:30 0
Do, 15.11. 15:00 0
Link zu dieser Seite / Seite empfehlen

Das Wetter in ...